San Luis Obispo, CA

8:19 AM PDT on September 26, 2017 (GMT -0700)
San Luis Obispo County-McChesney

Weather History for KSBP - January, 2014

Change the Weather History Date:

Monday, January 27, 2014

  Actual Average Record
Temperature  
Mean Temperature 58 °F -  
Max Temperature 70 °F 63 °F 79 °F (1951)
Min Temperature 46 °F 42 °F 29 °F (1949)
Degree Days  
Heating Degree Days 7    
Growing Degree Days 8 (Base 50)    
Moisture  
Dew Point 47 °F    
Average Humidity 78    
Maximum Humidity 94    
Minimum Humidity 42    
Precipitation  
Precipitation 0.00 in - - ()
Sea Level Pressure  
Sea Level Pressure 30.10 in    
Wind  
Wind Speed 5 mph (NW)    
Max Wind Speed 23 mph    
Max Gust Speed -    
Visibility 8 miles    
Events      
Averages and records for this station are not official NWS values.
T = Trace of Precipitation, MM = Missing Value Source: NWS Daily Summary

Daily Weather History Graph

Daily Weather History Graph

Search for Another Location

Airport or City:

Trip Planner

Search our weather history database for the weather conditions in past years. The results will help you decide how hot, cold, wet, or windy it might be!

Date:

Astronomy

Jan. 27, 2014 Rise Set
Actual Time 7:05 AM PST 5:25 PM PST
Civil Twilight 6:38 AM PST 5:52 PM PST
Nautical Twilight 6:07 AM PST 6:23 PM PST
Astronomical Twilight 5:37 AM PST 6:53 PM PST
Moon 3:50 AM PST (1/27) 2:18 PM PST (1/27)
Length of Visible Light 11h 14m
Length of Day
10h 20m
Waning Crescent, 14% of the Moon is Illuminated
Jan 27
Waning Crescent
Jan 30
New
Feb 6
First Quarter
Feb 14
Full
Feb 22
Last Quarter

Hourly Weather History & Observations

Time (PST) Temp. Windchill Dew Point Humidity Pressure Visibility Wind Dir Wind Speed Gust Speed Precip Events Conditions
12:56 AM 46.9 °F - 42.1 °F 83% 30.05 in 10.0 mi Calm Calm - N/A   Clear
1:56 AM 46.9 °F - 44.1 °F 90% 30.06 in 7.0 mi Calm Calm - N/A   Clear
2:34 AM 48.2 °F - 44.6 °F 87% 30.06 in 8.0 mi Calm Calm - N/A   Scattered Clouds
2:43 AM 46.4 °F 44.3 °F 42.8 °F 87% 30.06 in 8.0 mi ESE 4.6 mph - N/A   Mostly Cloudy
2:56 AM 48.9 °F - 45.0 °F 86% 30.07 in 7.0 mi Calm Calm - N/A   Overcast
3:56 AM 54.0 °F - 50.0 °F 86% 30.08 in 6.0 mi North 9.2 mph - N/A   Overcast
4:56 AM 53.1 °F - 48.9 °F 86% 30.07 in 6.0 mi NNW 9.2 mph - N/A   Mostly Cloudy
5:03 AM 51.8 °F - 48.2 °F 88% 30.07 in 6.0 mi NNW 6.9 mph - N/A   Scattered Clouds
5:56 AM 50.0 °F - 46.0 °F 86% 30.09 in 7.0 mi Calm Calm - N/A   Scattered Clouds
6:56 AM 46.0 °F 43.1 °F 42.1 °F 86% 30.11 in 7.0 mi ESE 5.8 mph - N/A   Scattered Clouds
7:56 AM 48.0 °F - 43.0 °F 83% 30.12 in 10.0 mi Variable 3.5 mph - N/A   Mostly Cloudy
8:56 AM 48.9 °F - 46.9 °F 93% 30.14 in 5.0 mi Calm Calm - N/A   Mostly Cloudy
9:08 AM 50.0 °F - 48.2 °F 94% 30.14 in 5.0 mi Calm Calm - N/A   Mostly Cloudy
9:56 AM 57.9 °F - 46.9 °F 67% 30.14 in 7.0 mi WNW 4.6 mph - N/A   Scattered Clouds
10:56 AM 66.0 °F - 42.1 °F 42% 30.13 in 10.0 mi WNW 4.6 mph - N/A   Scattered Clouds
11:56 AM 66.0 °F - 48.9 °F 54% 30.12 in 10.0 mi NW 23.0 mph - N/A   Scattered Clouds
12:56 PM 64.9 °F - 50.0 °F 58% 30.09 in 10.0 mi NW 12.7 mph - N/A   Mostly Cloudy
1:56 PM 66.9 °F - 48.9 °F 52% 30.07 in 10.0 mi NW 15.0 mph - N/A   Mostly Cloudy
2:56 PM 70.0 °F - 48.0 °F 46% 30.05 in 10.0 mi NW 12.7 mph - N/A   Mostly Cloudy
3:56 PM 64.9 °F - 51.1 °F 61% 30.06 in 10.0 mi NW 18.4 mph - N/A   Mostly Cloudy
4:56 PM 60.1 °F - 51.1 °F 72% 30.08 in 10.0 mi NW 13.8 mph - N/A   Mostly Cloudy
5:56 PM 55.9 °F - 50.0 °F 80% 30.10 in 10.0 mi NW 12.7 mph - N/A   Mostly Cloudy
6:56 PM 55.9 °F - 52.0 °F 87% 30.12 in 10.0 mi NNW 13.8 mph - N/A   Clear
7:56 PM 55.9 °F - 51.1 °F 84% 30.13 in 9.0 mi NNW 9.2 mph - N/A   Clear
8:56 PM 54.0 °F - 50.0 °F 86% 30.14 in 9.0 mi WNW 4.6 mph - N/A   Clear
9:56 PM 54.0 °F - 50.0 °F 86% 30.14 in 9.0 mi Calm Calm - N/A   Clear
10:56 PM 50.0 °F - 45.0 °F 83% 30.14 in 10.0 mi Calm Calm - N/A   Clear
11:56 PM 53.1 °F - 50.0 °F 89% 30.15 in 8.0 mi Variable 4.6 mph - N/A   Clear